Menominee, MI

4:26 AM CDT on March 28, 2017 (GMT -0500)
Menominee-Marinette Twin County

Weather History for KMNM - February, 2011

Change the Weather History Date:

Sunday, February 20, 2011

  Actual Average Record
Temperature  
Mean Temperature 26 °F -  
Max Temperature 28 °F 34 °F 52 °F (1981)
Min Temperature 23 °F 14 °F -14 °F (2015)
Degree Days  
Heating Degree Days 40    
Moisture  
Dew Point 17 °F    
Average Humidity 69    
Maximum Humidity 80    
Minimum Humidity 55    
Precipitation  
Precipitation 0.00 in - - ()
Sea Level Pressure  
Sea Level Pressure 30.13 in    
Wind  
Wind Speed 10 mph (ENE)    
Max Wind Speed 30 mph    
Max Gust Speed 38 mph    
Visibility 8 miles    
Events      
Averages and records for this station are not official NWS values.
T = Trace of Precipitation, MM = Missing Value Source: NWS Daily Summary

Daily Weather History Graph

Daily Weather History Graph

Search for Another Location

Airport or City:

Trip Planner

Search our weather history database for the weather conditions in past years. The results will help you decide how hot, cold, wet, or windy it might be!

Date:

Astronomy

Feb. 20, 2011 Rise Set
Actual Time 6:44 AM CST 5:25 PM CST
Civil Twilight 6:14 AM CST 5:55 PM CST
Nautical Twilight 5:40 AM CST 6:29 PM CST
Astronomical Twilight 5:06 AM CST 7:03 PM CST
Moon 8:59 PM CST (2/20) 7:28 AM CST (2/20)
Length of Visible Light 11h 40m
Length of Day
10h 40m
Waning Gibbous, 92% of the Moon is Illuminated
Feb 20
Waning Gibbous
Feb 24
Last Quarter
Mar 4
New
Mar 12
First Quarter
Mar 19
Full

Hourly Weather History & Observations

Time (CST) Temp. Windchill Dew Point Humidity Pressure Visibility Wind Dir Wind Speed Gust Speed Precip Events Conditions
12:15 AM 23.0 °F - 14.0 °F 68% 30.37 in 10.0 mi Calm Calm - N/A   Overcast
12:35 AM 23.0 °F 18.4 °F 15.8 °F 74% 30.37 in 10.0 mi ENE 3.5 mph - N/A   Overcast
12:55 AM 23.0 °F 17.0 °F 15.8 °F 74% 30.35 in 10.0 mi NE 4.6 mph - N/A   Overcast
1:15 AM 23.0 °F 17.0 °F 14.0 °F 68% 30.34 in 10.0 mi East 4.6 mph - N/A   Overcast
1:35 AM 24.8 °F 16.1 °F 14.0 °F 64% 30.33 in 10.0 mi ENE 8.1 mph - N/A   Overcast
1:55 AM 24.8 °F 17.9 °F 14.0 °F 64% 30.33 in 10.0 mi ENE 5.8 mph - N/A   Overcast
2:55 AM 24.8 °F 16.9 °F 15.8 °F 69% 30.29 in 10.0 mi East 6.9 mph - N/A   Overcast
3:15 AM 24.8 °F 16.9 °F 15.8 °F 69% 30.28 in 10.0 mi East 6.9 mph - N/A   Overcast
3:35 AM 24.8 °F 17.9 °F 15.8 °F 69% 30.27 in 10.0 mi ESE 5.8 mph - N/A   Overcast
3:55 AM 24.8 °F 17.9 °F 17.6 °F 74% 30.26 in 10.0 mi ESE 5.8 mph - N/A   Overcast
4:15 AM 24.8 °F 17.9 °F 17.6 °F 74% 30.25 in 10.0 mi ESE 5.8 mph - N/A   Overcast
4:35 AM 24.8 °F 17.9 °F 17.6 °F 74% 30.25 in 10.0 mi ESE 5.8 mph - N/A   Overcast
4:55 AM 24.8 °F 17.9 °F 17.6 °F 74% 30.25 in 10.0 mi SE 5.8 mph - N/A   Overcast
5:15 AM 24.8 °F 17.9 °F 15.8 °F 69% 30.25 in 10.0 mi SE 5.8 mph - N/A   Overcast
5:35 AM 26.6 °F 18.2 °F 15.8 °F 64% 30.23 in 10.0 mi SE 8.1 mph - N/A   Overcast
5:55 AM 26.6 °F 19.1 °F 15.8 °F 64% 30.20 in 10.0 mi East 6.9 mph - N/A   Overcast
6:15 AM 24.8 °F 16.9 °F 15.8 °F 69% 30.18 in 10.0 mi East 6.9 mph - N/A   Overcast
6:35 AM 26.6 °F 19.1 °F 17.6 °F 69% 30.21 in 10.0 mi ESE 6.9 mph - N/A   Overcast
6:55 AM 26.6 °F 19.1 °F 15.8 °F 64% 30.20 in 10.0 mi SE 6.9 mph - N/A   Overcast
7:15 AM 26.6 °F 20.0 °F 17.6 °F 69% 30.19 in 10.0 mi East 5.8 mph - N/A   Overcast
7:35 AM 26.6 °F 19.1 °F 17.6 °F 69% 30.18 in 10.0 mi ENE 6.9 mph - N/A   Overcast
7:55 AM 26.6 °F 17.5 °F 17.6 °F 69% 30.16 in 10.0 mi ENE 9.2 mph - N/A   Overcast
8:15 AM 26.6 °F 17.5 °F 15.8 °F 64% 30.17 in 10.0 mi ENE 9.2 mph - N/A   Overcast
8:35 AM 26.6 °F 18.2 °F 15.8 °F 64% 30.18 in 10.0 mi ENE 8.1 mph - N/A   Overcast
8:55 AM 26.6 °F 18.2 °F 17.6 °F 69% 30.17 in 10.0 mi ENE 8.1 mph - N/A   Overcast
9:15 AM 26.6 °F 16.2 °F 17.6 °F 69% 30.14 in 10.0 mi ENE 11.5 mph - N/A   Overcast
9:35 AM 28.4 °F 18.5 °F 17.6 °F 64% 30.15 in 10.0 mi ENE 11.5 mph - N/A   Overcast
9:55 AM 28.4 °F 18.0 °F 17.6 °F 64% 30.15 in 10.0 mi ENE 12.7 mph - N/A   Overcast
10:15 AM 28.4 °F 18.0 °F 17.6 °F 64% 30.13 in 10.0 mi ENE 12.7 mph - N/A   Overcast
10:35 AM 28.4 °F 17.5 °F 17.6 °F 64% 30.12 in 10.0 mi ENE 13.8 mph - N/A   Overcast
10:55 AM 28.4 °F 16.6 °F 19.4 °F 69% 30.11 in 10.0 mi ENE 16.1 mph - N/A   Overcast
11:15 AM 28.4 °F 17.5 °F 19.4 °F 69% 30.10 in 10.0 mi ENE 13.8 mph 19.6 mph N/A   Overcast
11:35 AM 28.4 °F 15.8 °F 19.4 °F 69% 30.11 in 10.0 mi ENE 18.4 mph 21.9 mph N/A   Overcast
11:55 AM 28.4 °F 15.1 °F 17.6 °F 64% 30.10 in 10.0 mi ENE 20.7 mph - N/A   Overcast
12:15 PM 28.4 °F 15.1 °F 17.6 °F 64% 30.09 in 10.0 mi ENE 20.7 mph 26.5 mph N/A   Overcast
12:35 PM 28.4 °F 15.4 °F 17.6 °F 64% 30.09 in 10.0 mi ENE 19.6 mph 24.2 mph N/A   Overcast
12:55 PM 26.6 °F 13.4 °F 17.6 °F 69% 30.08 in 10.0 mi ENE 18.4 mph 24.2 mph N/A   Overcast
1:15 PM 26.6 °F 14.7 °F 17.6 °F 69% 30.07 in 10.0 mi ENE 15.0 mph 27.6 mph N/A   Overcast
1:35 PM 26.6 °F 12.4 °F 17.6 °F 69% 30.06 in 10.0 mi ENE 21.9 mph 27.6 mph N/A   Overcast
1:55 PM 26.6 °F 13.4 °F 17.6 °F 69% 30.04 in 10.0 mi ENE 18.4 mph 27.6 mph N/A   Overcast
2:15 PM 26.6 °F 13.8 °F 17.6 °F 69% 30.05 in 10.0 mi East 17.3 mph 25.3 mph N/A   Overcast
2:35 PM 26.6 °F 13.4 °F 17.6 °F 69% 30.04 in 10.0 mi ENE 18.4 mph 24.2 mph N/A   Overcast
2:55 PM 26.6 °F 13.1 °F 14.0 °F 59% 30.05 in 10.0 mi East 19.6 mph 25.3 mph N/A   Overcast
3:15 PM 26.6 °F 13.1 °F 12.2 °F 55% 30.05 in 10.0 mi ENE 19.6 mph 24.2 mph N/A   Overcast
3:35 PM 26.6 °F 12.7 °F 12.2 °F 55% 30.03 in 10.0 mi ENE 20.7 mph 26.5 mph N/A   Mostly Cloudy
3:55 PM 24.8 °F 10.0 °F 12.2 °F 59% 30.02 in 1.8 mi East 21.9 mph 31.1 mph N/A   Overcast
4:15 PM 24.8 °F 11.1 °F 15.8 °F 69% 30.02 in 1.5 mi East 18.4 mph 28.8 mph N/A   Overcast
4:35 PM 24.8 °F 10.7 °F 15.8 °F 69% 30.00 in 1.5 mi ENE 19.6 mph 27.6 mph N/A   Overcast
4:55 PM 24.8 °F 10.7 °F 17.6 °F 74% 30.01 in 0.8 mi ENE 19.6 mph 28.8 mph N/A   Overcast
5:15 PM 24.8 °F 11.1 °F 17.6 °F 74% 30.00 in 0.8 mi ENE 18.4 mph 24.2 mph N/A   Overcast
5:35 PM 24.8 °F 11.1 °F 17.6 °F 74% 30.00 in 0.5 mi ENE 18.4 mph 25.3 mph N/A   Overcast
5:55 PM 24.8 °F 9.6 °F 17.6 °F 74% 29.99 in 1.0 mi ENE 23.0 mph 31.1 mph N/A   Overcast
6:15 PM 23.0 °F 6.9 °F 17.6 °F 80% 29.98 in 1.5 mi ENE 24.2 mph 33.4 mph N/A   Overcast
6:35 PM 23.0 °F 7.6 °F 17.6 °F 80% 29.98 in 1.2 mi ENE 21.9 mph 32.2 mph N/A   Overcast
6:55 PM 23.0 °F 7.2 °F 17.6 °F 80% 29.97 in 1.2 mi ENE 23.0 mph 34.5 mph N/A   Overcast
7:15 PM 24.8 °F 7.9 °F 17.6 °F 74% 29.97 in 1.5 mi ENE 29.9 mph 35.7 mph N/A   Overcast
7:35 PM 23.0 °F 6.9 °F 17.6 °F 80% 29.98 in 1.5 mi ENE 24.2 mph 33.4 mph N/A   Overcast
7:55 PM 23.0 °F 5.7 °F 17.6 °F 80% 29.96 in 1.8 mi ENE 28.8 mph 33.4 mph N/A   Overcast
8:15 PM 23.0 °F 8.0 °F 15.8 °F 74% 30.00 in 1.8 mi ENE 20.7 mph 38.0 mph N/A   Overcast
8:35 PM 23.0 °F 7.2 °F 15.8 °F 74% 29.99 in 2.5 mi ENE 23.0 mph 35.7 mph N/A   Overcast
8:55 PM 23.0 °F 6.3 °F 17.6 °F 80% 29.96 in 1.8 mi ENE 26.5 mph 35.7 mph N/A   Overcast
9:15 PM 23.0 °F 6.6 °F 17.6 °F 80% 29.97 in 1.0 mi ENE 25.3 mph 35.7 mph N/A   Overcast
9:35 PM 23.0 °F 6.0 °F 17.6 °F 80% 29.96 in 1.0 mi ENE 27.6 mph 35.7 mph N/A   Overcast
9:55 PM 23.0 °F 6.6 °F 17.6 °F 80% 29.95 in 1.8 mi ENE 25.3 mph 34.5 mph N/A   Overcast
10:15 PM 23.0 °F 6.9 °F 15.8 °F 74% 29.94 in 1.5 mi ENE 24.2 mph 36.8 mph N/A   Overcast
10:35 PM 23.0 °F 6.0 °F 17.6 °F 80% 29.93 in 2.5 mi ENE 27.6 mph 35.7 mph N/A   Overcast
10:55 PM 23.0 °F 7.2 °F 15.8 °F 74% 29.97 in 5.0 mi ENE 23.0 mph 32.2 mph N/A   Overcast
11:15 PM 24.8 °F 9.6 °F 17.6 °F 74% 29.98 in 6.0 mi ENE 23.0 mph 32.2 mph N/A   Overcast
11:35 PM 23.0 °F 6.6 °F 15.8 °F 74% 29.98 in 5.0 mi ENE 25.3 mph 31.1 mph N/A   Overcast
11:55 PM 23.0 °F 6.6 °F 17.6 °F 80% 29.96 in 3.0 mi ENE 25.3 mph 34.5 mph N/A   Overcast